Weather observations for the past three days for
Hyannis, Barnstable Municipal-Boardman Airport
Metric (Imperial)
Date Time (edt) Wind (kph) Vis. (km) Weather Sky Cond. Temperature (ºC) Relative Humidity Wind Chill (°C) Heat Index (°C) Pressure Precipitation (cm)
Air Dwpt 6 hour altimeter (cm) sea level (mb) 1 hr 3 hr 6 hr
Max. Min.
21 11:56 N 13 16.09 Fair CLR 27.2 20 65% 29 76.58 1021.1
21 10:56 N 15 16.09 Fair CLR 27.8 21.1 67% 30 76.58 1021.1
21 09:56 N 6 16.09 Fair CLR 27.2 21.1 69% 29 76.58 1021.0
21 08:56 S 9 16.09 Fair CLR 24.4 21.1 82% 25 76.58 1021.0
21 07:56 SW 6 16.09 Fair CLR 23.3 20.6 23.3 19.4 85% 76.61 1021.5
21 06:56 SW 11 16.09 Fair CLR 21.7 19.4 87% 76.61 1021.5
21 05:56 SW 9 16.09 Fair CLR 20 18.3 90% 76.63 1021.8
21 04:56 W 9 16.09 Fair CLR 19.4 18.3 93% 76.63 1021.9
21 03:56 SW 9 16.09 Fair CLR 19.4 18.3 93% 76.63 1021.8
21 02:56 W 7 16.09 Fair CLR 19.4 18.3 93% 76.63 1021.6
21 01:56 SW 9 16.09 Fair CLR 20 18.9 22.8 20 93% 76.66 1022.0
21 00:56 SW 13 16.09 Fair CLR 20.6 18.9 90% 76.66 1022.1
20 23:56 Calm 16.09 Fair CLR 21.7 19.4 87% 76.71 1022.6
20 22:56 N 15 16.09 Overcast OVC049 22.8 20 84% 76.78 1023.9
20 21:56 SW 13 16.09 Fair CLR 21.7 18.9 84% 76.73 1023.1
20 20:56 SW 17 16.09 Fair CLR 21.7 18.9 84% 76.68 1022.5
20 19:56 SW 15 16.09 Fair CLR 22.8 18.9 26.7 22.8 79% 76.63 1021.8
20 18:56 SW 17 16.09 Fair CLR 23.9 19.4 76% 24 76.66 1022.0
20 17:56 SW 22 16.09 Fair CLR 25 19.4 71% 26 76.63 1021.8
20 16:56 SW 30 G 48 16.09 Fair CLR 25.6 20 71% 27 76.66 1022.1
20 15:56 SW 24 16.09 Fair CLR 26.1 20 69% 27 76.68 1022.4
20 14:56 SW 26 G 43 16.09 Fair CLR 26.1 20.6 72% 28 76.73 1023.2
20 13:56 SW 26 G 41 16.09 Fair CLR 26.1 20 27.2 22.8 69% 27 76.78 1023.8
20 12:56 SW 26 G 43 16.09 Fair CLR 26.1 20 69% 27 76.81 1024.2
20 11:56 SW 31 G 41 16.09 Fair CLR 25.6 19.4 69% 27 76.84 1024.6
20 10:56 SW 22 G 41 16.09 Fair CLR 25 19.4 71% 26 76.86 1024.7
20 09:56 SW 22 G 39 16.09 Fair CLR 23.9 18.9 74% 25 76.86 1024.7
20 08:56 SW 22 16.09 Fair CLR 23.3 19.4 79% 76.86 1024.6
20 07:56 SW 24 16.09 Fair CLR 22.8 18.9 22.8 20 79% 76.86 1024.7
20 06:56 SW 17 16.09 Fair CLR 21.1 18.9 87% 76.86 1024.9
20 05:56 SW 15 16.09 Fair CLR 20.6 17.8 84% 76.86 1024.7
20 04:56 SW 19 16.09 Fair CLR 20.6 17.8 84% 76.86 1024.8
20 03:56 SW 17 16.09 Fair CLR 20.6 17.2 81% 76.86 1024.7
20 02:56 SW 17 16.09 Fair CLR 20.6 17.8 84% 76.89 1025.0
20 01:56 SW 15 16.09 Fair CLR 20 17.8 22.2 20 87% 76.89 1025.1
20 00:56 SW 17 16.09 Fair CLR 20.6 17.8 84% 76.94 1025.6
19 23:56 SW 20 16.09 Fair CLR 20.6 17.2 81% 76.94 1025.8
19 22:56 SW 20 16.09 Fair CLR 20.6 17.8 84% 76.96 1026.0
19 21:56 SW 22 16.09 Fair CLR 20.6 18.3 87% 76.96 1025.9
19 20:56 SW 24 16.09 Fair CLR 21.7 17.2 76% 76.94 1025.7
19 19:56 SW 33 G 43 16.09 Fair and Breezy CLR 22.2 16.7 26.7 22.2 71% 76.99 1026.3
19 18:56 SW 31 16.09 Fair CLR 23.3 16.7 67% 76.99 1026.3
19 17:56 SW 39 G 52 16.09 Fair and Breezy CLR 25 17.2 62% 26 76.94 1025.6
19 16:56 SW 41 G 56 16.09 Fair and Breezy CLR 25 17.2 62% 26 76.91 1025.4
19 15:56 SW 39 G 52 16.09 Fair and Breezy CLR 25.6 17.2 60% 27 76.94 1025.7
19 14:56 SW 22 G 46 16.09 Fair CLR 26.1 18.9 65% 27 76.96 1026.0
19 13:56 SW 30 G 41 16.09 Fair CLR 25.6 18.9 26.7 22.2 67% 27 76.99 1026.3
19 12:56 SW 30 G 46 16.09 Fair CLR 26.1 18.3 62% 27 76.99 1026.3
19 11:56 SW 28 G 41 16.09 Fair CLR 25.6 17.8 62% 27 76.99 1026.6
19 10:56 SW 22 16.09 Fair CLR 25.6 18.3 64% 27 76.99 1026.6
19 09:56 SW 24 G 39 16.09 Fair CLR 25 17.8 64% 26 76.99 1026.5
19 08:56 SW 22 16.09 Fair CLR 23.9 17.8 69% 25 77.01 1026.8
19 07:56 SW 24 16.09 Fair CLR 22.8 17.2 22.8 20 71% 77.01 1026.7
19 06:56 SW 20 16.09 Fair CLR 21.7 17.2 76% 76.99 1026.5
19 05:56 SW 20 G 37 16.09 Fair CLR 20.6 17.2 81% 76.99 1026.3
19 04:56 SW 24 16.09 Fair CLR 20 17.2 84% 76.94 1025.7
19 03:56 SW 24 16.09 Fair CLR 20 17.8 87% 76.94 1025.8
19 02:56 SW 19 16.09 Fair CLR 20 17.8 87% 76.96 1026.0
19 01:56 SW 26 16.09 Fair CLR 20 17.8 21.7 20 87% 76.94 1025.6
19 00:56 SW 30 G 39 16.09 Fair CLR 20 17.8 87% 76.94 1025.9
18 23:56 SW 19 16.09 Fair CLR 20 16.7 81% 76.89 1025.2
18 22:56 SW 22 16.09 Fair CLR 20.6 16.7 78% 76.89 1025.0
18 21:56 SW 24 16.09 Fair CLR 21.1 16.1 73% 76.84 1024.6
18 20:56 SW 26 G 39 16.09 Fair CLR 21.7 16.1 71% 76.81 1024.0
18 19:56 SW 30 G 44 16.09 Fair CLR 21.7 16.1 25.6 21.7 71% 76.78 1023.6
18 18:56 SW 31 G 44 16.09 Fair CLR 22.8 16.1 66% 76.76 1023.4
18 17:56 SW 24 16.09 Fair CLR 23.9 17.2 66% 25 76.76 1023.3
18 16:56 SW 22 G 39 16.09 Fair CLR 23.9 17.8 69% 25 76.78 1023.6
18 15:56 SW 37 G 52 16.09 Fair and Breezy CLR 24.4 17.8 67% 25 76.76 1023.5
18 14:56 SW 30 G 46 16.09 Fair CLR 25 18.9 69% 26 76.76 1023.5
18 13:56 SW 24 G 37 16.09 Fair CLR 25 19.4 25.6 21.7 71% 26 76.78 1023.8
18 12:56 SW 22 16.09 Fair CLR 24.4 19.4 74% 25 76.81 1024.0
Date Time (edt) Wind (kph) Vis. (km) Weather Sky Cond. Air Dwpt Max. Min. Relative Humidity Wind Chill (°C) Heat Index (°C) altimeter (cm) sea level (mb) 1 hr 3 hr 6 hr
6 hour
Temperature (ºC) Pressure Precipitation (cm)